Back to catalog

NOAA 16 DEB

AliveSSO
NORAD 41197·DEBRIS·🇺🇸 United States

Launched Sep 21, 2000 from Vandenberg Space Force Base

Loading…

Next Passes (next 24 hours)

TLE

FreshSource: Space-Track

Epoch: Sep 12, 2026, 12:23 UTC

1 41197U 00055DA  26255.51606551  .00004283  00000-0  14536-2 0  9999
2 41197  98.6541 274.7242 0030823 228.7896 131.0633 14.36929193551930

Track NOAA 16 DEB in real time with AllMySat

Download on the App Store